When you browse on this site, cookies collect data to enhance your experience and personalize the content and advertising you see.
Visit our Privacy Policy to learn more. By continuing to use the site, you agree to this use of cookies and data.
  • In Hungary
  • List of Countries
  • For 7 days
  • Water Temperature
  • Satellite Maps
  • Weather Map
  • News
  • Weather Widgets
  • user-avatar
    Login

    Hourly Weather Saroy

    Today, 16 December, Sunday

    Time Temperature Precipitation Wind Pressure Humidity
    00:00 +5°C° 0 mm 3 mps 719 mmHg 66%
    01:00 +4°C° 0 mm 3 mps 719 mmHg 70%
    02:00 +4°C° 0 mm 3 mps 719 mmHg 71%
    03:00 +5°C° 0 mm 2 mps 720 mmHg 73%
    04:00 +5°C° 0 mm 2 mps 721 mmHg 75%
    05:00 +4°C° 0 mm 2 mps 721 mmHg 75%
    06:00 +4°C° 0 mm 2 mps 721 mmHg 75%
    07:00 +4°C° 0 mm 2 mps 721 mmHg 76%
    08:00 +5°C° 0 mm 2 mps 722 mmHg 70%
    09:00 +7°C° 0 mm 2 mps 722 mmHg 64%
    10:00 +8°C° 0 mm 2 mps 722 mmHg 56%
    11:00 +9°C° 0 mm 2 mps 722 mmHg 53%
    12:00 +9°C° 0 mm 2 mps 721 mmHg 50%
    13:00 +10°C° 0 mm 2 mps 721 mmHg 47%
    14:00 +9°C° 0 mm 2 mps 721 mmHg 49%
    15:00 +9°C° 0 mm 2 mps 720 mmHg 51%
    16:00 +8°C° 0 mm 2 mps 720 mmHg 54%
    17:00 +8°C° 0 mm 2 mps 719 mmHg 53%
    18:00 +7°C° 0 mm 2 mps 719 mmHg 53%
    19:00 +7°C° 0 mm 2 mps 719 mmHg 52%
    20:00 +7°C° 0 mm 2 mps 718 mmHg 50%
    21:00 +7°C° 0 mm 2 mps 718 mmHg 48%
    22:00 +7°C° 0 mm 2 mps 718 mmHg 46%
    23:00 +7°C° 0 mm 2 mps 717 mmHg 45%

    Tomorrow, 17 December, Monday

    Time Temperature Precipitation Wind Pressure Humidity
    00:00 +7°C° 0 mm 2 mps 717 mmHg 43%
    01:00 +7°C° 0 mm 2 mps 717 mmHg 42%
    02:00 +7°C° 0 mm 2 mps 717 mmHg 40%
    03:00 +7°C° 0 mm 2 mps 716 mmHg 39%
    04:00 +7°C° 0 mm 2 mps 716 mmHg 37%
    05:00 +7°C° 0 mm 2 mps 716 mmHg 37%
    06:00 +7°C° 0 mm 2 mps 716 mmHg 36%
    07:00 +7°C° 0 mm 2 mps 716 mmHg 35%
    08:00 +9°C° 0 mm 2 mps 717 mmHg 33%
    09:00 +12°C° 0 mm 2 mps 717 mmHg 30%
    10:00 +13°C° 0 mm 2 mps 717 mmHg 28%
    11:00 +14°C° 0 mm 2 mps 717 mmHg 28%
    12:00 +13°C° 0 mm 3 mps 716 mmHg 27%
    13:00 +14°C° 0 mm 4 mps 716 mmHg 27%
    14:00 +13°C° 0 mm 3 mps 716 mmHg 31%
    15:00 +12°C° 0 mm 3 mps 716 mmHg 34%
    16:00 +11°C° 0 mm 3 mps 716 mmHg 38%
    17:00 +10°C° 0 mm 3 mps 716 mmHg 39%
    18:00 +10°C° 0 mm 3 mps 716 mmHg 40%
    19:00 +9°C° 0 mm 3 mps 716 mmHg 41%
    20:00 +9°C° 0 mm 3 mps 716 mmHg 41%
    21:00 +9°C° 0 mm 3 mps 716 mmHg 41%
    22:00 +8°C° 0 mm 2 mps 716 mmHg 41%
    23:00 +8°C° 0 mm 2 mps 716 mmHg 42%

    Day after tomorrow, 18 December, Tuesday

    Time Temperature Precipitation Wind Pressure Humidity
    00:00 +8°C° 0 mm 2 mps 716 mmHg 43%
    01:00 +8°C° 0 mm 2 mps 716 mmHg 44%
    02:00 +8°C° 0 mm 2 mps 716 mmHg 45%
    03:00 +8°C° 0 mm 2 mps 716 mmHg 46%
    04:00 +8°C° 0 mm 2 mps 716 mmHg 47%
    05:00 +8°C° 0 mm 2 mps 716 mmHg 47%
    06:00 +8°C° 0 mm 2 mps 716 mmHg 46%
    07:00 +9°C° 0 mm 1 mps 716 mmHg 46%
    08:00 +10°C° 0 mm 1 mps 716 mmHg 43%
    09:00 +11°C° 0 mm 1 mps 716 mmHg 39%
    10:00 +13°C° 0 mm 1 mps 716 mmHg 36%
    11:00 +13°C° 0 mm 1 mps 716 mmHg 34%
    12:00 +14°C° 0 mm 1 mps 715 mmHg 33%
    13:00 +14°C° 0 mm 2 mps 714 mmHg 32%
    14:00 +14°C° 0 mm 2 mps 714 mmHg 35%
    15:00 +13°C° 0 mm 2 mps 714 mmHg 38%
    16:00 +12°C° 0 mm 2 mps 714 mmHg 41%
    17:00 +12°C° 0 mm 2 mps 713 mmHg 41%
    18:00 +12°C° 0 mm 2 mps 713 mmHg 42%
    19:00 +10°C° 0 mm 2 mps 713 mmHg 42%
    20:00 +10°C° 0 mm 2 mps 713 mmHg 41%
    21:00 +10°C° 0 mm 2 mps 712 mmHg 40%
    22:00 +10°C° 0 mm 2 mps 712 mmHg 39%
    23:00 +10°C° 0 mm 2 mps 712 mmHg 39%

    19 December, Wednesday

    Time Temperature Precipitation Wind Pressure Humidity
    00:00 +10°C° 0 mm 2 mps 712 mmHg 39%
    01:00 +10°C° 0 mm 2 mps 712 mmHg 39%
    02:00 +10°C° 0 mm 2 mps 712 mmHg 40%
    03:00 +10°C° 0 mm 2 mps 712 mmHg 41%
    04:00 +9°C° 0 mm 2 mps 712 mmHg 42%
    05:00 +9°C° 0 mm 2 mps 713 mmHg 45%
    06:00 +9°C° 0 mm 2 mps 713 mmHg 48%
    07:00 +9°C° 0 mm 1 mps 714 mmHg 50%
    08:00 +9°C° 0.1 mm 2 mps 714 mmHg 52%
    09:00 +9°C° 0.1 mm 2 mps 715 mmHg 54%
    10:00 +9°C° 0.1 mm 3 mps 716 mmHg 56%
    11:00 +8°C° 0.3 mm 3 mps 716 mmHg 61%
    12:00 +8°C° 0.3 mm 3 mps 716 mmHg 65%
    13:00 +6°C° 0.3 mm 4 mps 716 mmHg 70%
    14:00 +7°C° 0.4 mm 3 mps 717 mmHg 73%
    15:00 +5°C° 0.4 mm 3 mps 717 mmHg 76%
    16:00 +5°C° 0.4 mm 3 mps 717 mmHg 80%
    17:00 +4°C° 0.3 mm 3 mps 718 mmHg 80%
    18:00 +4°C° 0.3 mm 3 mps 718 mmHg 80%
    19:00 +5°C° 0.3 mm 2 mps 719 mmHg 81%
    20:00 +5°C° 0.2 mm 2 mps 719 mmHg 81%
    21:00 +5°C° 0.2 mm 2 mps 719 mmHg 81%
    22:00 +5°C° 0.2 mm 2 mps 719 mmHg 81%
    23:00 +6°C° 0.2 mm 1 mps 720 mmHg 82%

    20 December, Thursday

    Time Temperature Precipitation Wind Pressure Humidity
    00:00 +5°C° 0.2 mm 1 mps 720 mmHg 82%
    01:00 +5°C° 0.2 mm 1 mps 720 mmHg 83%
    02:00 +5°C° 0.2 mm 1 mps 720 mmHg 83%
    03:00 +5°C° 0.2 mm 1 mps 720 mmHg 83%
    04:00 +5°C° 0.2 mm 1 mps 720 mmHg 83%
    05:00 +5°C° 0.1 mm 1 mps 720 mmHg 83%
    06:00 +5°C° 0.1 mm 1 mps 720 mmHg 82%
    07:00 +5°C° 0.1 mm 1 mps 720 mmHg 81%
    08:00 +6°C° 0 mm 1 mps 720 mmHg 77%
    09:00 +7°C° 0 mm 1 mps 720 mmHg 73%
    10:00 +8°C° 0 mm 1 mps 721 mmHg 68%
    11:00 +8°C° 0 mm 1 mps 720 mmHg 66%
    12:00 +9°C° 0 mm 1 mps 719 mmHg 64%
    13:00 +9°C° 0 mm 1 mps 719 mmHg 62%
    14:00 +8°C° 0 mm 2 mps 718 mmHg 64%
    15:00 +7°C° 0 mm 2 mps 718 mmHg 66%
    16:00 +7°C° 0 mm 2 mps 718 mmHg 68%
    17:00 +7°C° 0 mm 2 mps 718 mmHg 67%
    18:00 +6°C° 0 mm 2 mps 717 mmHg 67%
    19:00 +5°C° 0 mm 3 mps 717 mmHg 66%
    20:00 +5°C° 0 mm 3 mps 717 mmHg 64%
    21:00 +5°C° 0 mm 3 mps 716 mmHg 61%
    22:00 +5°C° 0 mm 3 mps 716 mmHg 59%
    23:00 +5°C° 0 mm 3 mps 715 mmHg 56%

    21 December, Friday

    Time Temperature Precipitation Wind Pressure Humidity
    00:00 +5°C° 0 mm 3 mps 715 mmHg 54%
    01:00 +5°C° 0 mm 3 mps 714 mmHg 52%
    02:00 +5°C° 0 mm 3 mps 714 mmHg 50%
    03:00 +5°C° 0 mm 3 mps 713 mmHg 48%
    04:00 +5°C° 0 mm 3 mps 713 mmHg 46%
    05:00 +7°C° 0 mm 3 mps 713 mmHg 44%
    06:00 +7°C° 0 mm 2 mps 713 mmHg 43%
    07:00 +7°C° 0 mm 2 mps 712 mmHg 41%
    08:00 +8°C° 0 mm 2 mps 712 mmHg 39%
    09:00 +10°C° 0 mm 2 mps 712 mmHg 38%
    10:00 +13°C° 0 mm 2 mps 712 mmHg 36%
    11:00 +13°C° 0 mm 2 mps 712 mmHg 35%
    12:00 +14°C° 0 mm 2 mps 711 mmHg 33%
    13:00 +14°C° 0 mm 2 mps 711 mmHg 32%
    14:00 +13°C° 0 mm 1 mps 711 mmHg 34%
    15:00 +12°C° 0 mm 1 mps 710 mmHg 36%
    16:00 +12°C° 0 mm 1 mps 710 mmHg 39%
    17:00 +11°C° 0 mm 1 mps 711 mmHg 40%
    18:00 +10°C° 0 mm 2 mps 711 mmHg 42%
    19:00 +10°C° 0 mm 2 mps 711 mmHg 43%
    20:00 +10°C° 0.1 mm 2 mps 711 mmHg 46%
    21:00 +9°C° 0.1 mm 2 mps 711 mmHg 49%
    22:00 +10°C° 0.1 mm 1 mps 712 mmHg 52%
    23:00 +10°C° 0.1 mm 1 mps 712 mmHg 54%
    Show more